Terug naar catalogus

CZ-6A DEB

ActiefSSO
NORAD 56601·DEBRIS·🇨🇳 China

Gelanceerd Nov 11, 2022 vanaf Taiyuan Satellite Launch Center

Loading…

Volgende Passages (komende 24 uur)

TLE

VersSource: Space-Track

Epoch: Sep 14, 2026, 07:06 UTC

1 56601U 22151ADZ 26257.29614268  .00000337  00000-0  12607-3 0  9991
2 56601  98.5995 277.4792 0114619 137.9658 223.0392 14.34463622177443

Volg CZ-6A DEB in realtime met AllMySat

Download on the App Store